Teterboro, NJ

4:14 PM EST on February 20, 2017 (GMT -0500)
Teterboro

Weather History for KTEB - December, 2013

Change the Weather History Date:

Thursday, December 5, 2013

  Actual Average Record
Temperature  
Mean Temperature 55 °F -  
Max Temperature 62 °F 45 °F 72 °F (2001)
Min Temperature 48 °F 31 °F 24 °F (1991)
Degree Days  
Heating Degree Days 10    
Growing Degree Days 5 (Base 50)    
Moisture  
Dew Point 49 °F    
Average Humidity 87    
Maximum Humidity 94    
Minimum Humidity 71    
Precipitation  
Precipitation 0.01 in - - ()
Sea Level Pressure  
Sea Level Pressure 30.04 in    
Wind  
Wind Speed 2 mph (SSE)    
Max Wind Speed 6 mph    
Max Gust Speed -    
Visibility 2 miles    
Events Fog , Rain    
Averages and records for this station are not official NWS values.
T = Trace of Precipitation, MM = Missing Value Source: NWS Daily Summary

Daily Weather History Graph

Daily Weather History Graph

Search for Another Location

Airport or City:

Trip Planner

Search our weather history database for the weather conditions in past years. The results will help you decide how hot, cold, wet, or windy it might be!

Date:

Astronomy

Dec. 05, 2013 Rise Set
Actual Time 7:05 AM EST 4:28 PM EST
Civil Twilight 6:34 AM EST 4:59 PM EST
Nautical Twilight 6:00 AM EST 5:33 PM EST
Astronomical Twilight 5:27 AM EST 6:06 PM EST
Moon 9:23 AM EST (12/5) 7:46 PM EST (12/5)
Length of Visible Light 10h 24m
Length of Day
9h 22m
Waxing Crescent, 10% of the Moon is Illuminated
Dec 5
Waxing Crescent
Dec 9
First Quarter
Dec 17
Full
Dec 25
Last Quarter
Jan 1
New

Hourly Weather History & Observations

Time (EST) Temp. Dew Point Humidity Pressure Visibility Wind Dir Wind Speed Gust Speed Precip Events Conditions
12:51 AM 50.0 °F 41.0 °F 71% 30.11 in 6.0 mi NE 3.5 mph - N/A   Haze
1:46 AM 48.2 °F 42.8 °F 82% 30.12 in 4.0 mi NNW 3.5 mph - 0.00 in   Light Drizzle
1:51 AM 50.0 °F 43.0 °F 77% 30.12 in 4.0 mi Calm Calm - 0.00 in   Light Drizzle
2:06 AM 50.0 °F 42.8 °F 76% 30.12 in 5.0 mi Calm Calm - 0.00 in   Light Drizzle
2:21 AM 50.0 °F 44.6 °F 82% 30.12 in 4.0 mi Calm Calm - 0.00 in   Light Drizzle
2:33 AM 50.0 °F 44.6 °F 82% 30.12 in 2.0 mi Calm Calm - 0.00 in Rain Light Rain
2:47 AM 50.0 °F 44.6 °F 82% 30.11 in 1.8 mi ENE 3.5 mph - 0.00 in Rain Light Rain
2:51 AM 48.9 °F 45.0 °F 86% 30.12 in 2.0 mi ENE 3.5 mph - 0.00 in Rain Light Rain
3:09 AM 48.2 °F 46.4 °F 93% 30.12 in 2.0 mi Calm Calm - 0.01 in Rain Light Rain
3:51 AM 48.9 °F 45.0 °F 86% 30.11 in 2.5 mi Calm Calm - 0.01 in   Overcast
4:18 AM 48.2 °F 44.6 °F 87% 30.10 in 3.0 mi Calm Calm - N/A   Overcast
4:51 AM 48.9 °F 45.0 °F 86% 30.10 in 3.0 mi NNW 3.5 mph - 0.00 in Rain Light Rain
4:59 AM 48.2 °F 44.6 °F 87% 30.09 in 3.0 mi NW 4.6 mph - 0.00 in Rain Light Rain
5:08 AM 48.2 °F 44.6 °F 87% 30.09 in 2.0 mi North 3.5 mph - 0.00 in Rain Light Rain
5:18 AM 48.2 °F 46.4 °F 93% 30.09 in 1.8 mi Calm Calm - 0.00 in Rain Light Rain
5:30 AM 48.2 °F 44.6 °F 87% 30.09 in 2.0 mi Calm Calm - 0.00 in Rain Light Rain
5:51 AM 48.9 °F 46.0 °F 90% 30.09 in 2.0 mi NNW 4.6 mph - 0.00 in Rain Light Rain
6:26 AM 48.2 °F 46.4 °F 93% 30.07 in 2.5 mi Calm Calm - 0.00 in Rain Light Rain
6:51 AM 50.0 °F 46.9 °F 89% 30.07 in 2.5 mi Calm Calm - 0.00 in   Overcast
7:32 AM 50.0 °F 46.4 °F 87% 30.09 in 1.2 mi Calm Calm - N/A   Overcast
7:51 AM 50.0 °F 46.0 °F 86% 30.09 in 0.8 mi Calm Calm - N/A   Overcast
8:23 AM 51.8 °F 48.2 °F 88% 30.07 in 0.8 mi Calm Calm - N/A   Overcast
8:51 AM 51.1 °F 48.9 °F 92% 30.08 in 0.5 mi Calm Calm - N/A Fog Fog
9:05 AM 51.8 °F 48.2 °F 88% 30.08 in 0.2 mi Calm Calm - N/A Fog Fog
9:51 AM 51.1 °F 48.9 °F 92% 30.08 in 0.2 mi Calm Calm - N/A Fog Fog
10:51 AM 53.1 °F 50.0 °F 89% 30.07 in 0.2 mi Calm Calm - N/A Fog Fog
11:42 AM 53.6 °F 51.8 °F 94% 30.05 in 0.5 mi NW 3.5 mph - N/A Fog Fog
11:51 AM 54.0 °F 51.1 °F 90% 30.04 in 0.8 mi Calm Calm - N/A   Overcast
12:07 PM 53.6 °F 51.8 °F 94% 30.02 in 1.0 mi Calm Calm - N/A   Overcast
12:13 PM 53.6 °F 51.8 °F 94% 30.01 in 0.8 mi Calm Calm - N/A   Overcast
12:22 PM 55.4 °F 51.8 °F 88% 30.01 in 1.2 mi Calm Calm - N/A   Overcast
12:51 PM 55.9 °F 52.0 °F 87% 30.00 in 2.5 mi Calm Calm - N/A   Overcast
1:34 PM 57.2 °F 51.8 °F 82% 29.99 in 3.0 mi SSW 3.5 mph - N/A   Haze
1:51 PM 57.9 °F 53.1 °F 84% 29.99 in 3.0 mi Calm Calm - N/A   Haze
2:51 PM 57.0 °F 52.0 °F 83% 29.98 in 2.5 mi NNE 3.5 mph - N/A   Haze
3:51 PM 57.0 °F 52.0 °F 83% 29.98 in 2.0 mi Calm Calm - N/A   Haze
4:51 PM 60.1 °F 52.0 °F 75% 29.98 in 2.0 mi Calm Calm - N/A   Haze
5:51 PM 57.0 °F 52.0 °F 83% 30.00 in 2.0 mi Calm Calm - N/A   Haze
6:19 PM 57.2 °F 53.6 °F 88% 30.01 in 2.0 mi Calm Calm - N/A   Overcast
6:51 PM 57.0 °F 53.1 °F 87% 29.99 in 2.0 mi East 3.5 mph - N/A   Overcast
6:59 PM 57.2 °F 53.6 °F 88% 29.99 in 1.0 mi East 3.5 mph - N/A   Overcast
7:27 PM 57.2 °F 53.6 °F 88% 29.98 in 1.0 mi Calm Calm - N/A   Overcast
7:51 PM 57.9 °F 54.0 °F 87% 29.98 in 1.0 mi Calm Calm - N/A   Overcast
7:58 PM 62.6 °F 53.6 °F 72% 29.98 in 2.0 mi SE 5.8 mph - N/A   Haze
8:51 PM 57.0 °F 53.1 °F 87% 29.98 in 2.0 mi South 3.5 mph - N/A   Overcast
8:58 PM 57.2 °F 53.6 °F 88% 29.97 in 3.0 mi South 3.5 mph - N/A   Overcast
9:18 PM 57.2 °F 53.6 °F 88% 29.97 in 3.0 mi South 5.8 mph - 0.00 in Rain Light Rain
9:51 PM 57.9 °F 55.0 °F 90% 29.96 in 3.0 mi SSW 5.8 mph - 0.00 in   Overcast
9:53 PM 57.2 °F 55.4 °F 94% 29.95 in 2.0 mi South 5.8 mph - N/A   Overcast
10:03 PM 57.2 °F 55.4 °F 94% 29.95 in 1.8 mi South 3.5 mph - N/A   Overcast
10:51 PM 57.0 °F 54.0 °F 89% 29.94 in 1.2 mi SW 3.5 mph - N/A   Overcast
11:51 PM 57.0 °F 55.0 °F 93% 29.93 in 1.5 mi South 4.6 mph - N/A   Light Drizzle